sat.trackr.live / text

‹ back to catalog

STARLINK-34044

NORAD 63846 · 2025-093L

PAYLOAD ACTIVE UNKNOWN

§ Identity

Operator
Country
US
Launch date
2025-05-07
Launch site
AFETR
Launch vehicle
Mass (kg)
RCS (m²)

Purposes: comms

External: N2YO · Heavens-Above · Gunter

§ Orbital elements

Epoch: 2026-09-20T17:28:48.342720Z

Period
94.27 min
Inclination
43.0012°
Eccentricity
0.0001686
Mean motion
15.27589515 rev/d
Perigee alt
481.9 km
Apogee alt
484.2 km
Semi-major
6,861.2 km
B*
5.8903e-4
RAAN
56.1837°
Arg perigee
276.0362°
Mean anomaly
84.0298°
Rev number
7,758

§ Raw data

STARLINK-340441 63846U 25093L   26263.72833730  .00015987  00000+0  58903-3 0  99952 63846  43.0012  56.1837 0001686 276.0362  84.0298 15.27589515 77582

JSON: /api/v1/satellites/63846 · /tle

For live sub-satellite position, see the globe view (requires WebGL).

§ Visibility from observer

Set your observer location to see the next 7 days of passes ≥ 10°. The values pass through the URL so the page stays shareable.

No JS? Fill the form by hand. The geolocation button needs JavaScript.